Tracking 19192 objects as of 19-Jun-2018
HD Live streaming from Space Station
objects crossing your sky now

SL-8 R/B

Track SL-8 R/B now!
10-day predictions


NORAD ID: 13917
Int'l Code: 1983-021B
Perigee: 962.2 km
Apogee: 1,002.4 km
Inclination: 82.9 °
Period: 104.6 minutes
Semi major axis: 7353 km
RCS: 4.8067 m2 (large)
Launch date: March 24, 1983
Source: Commonwealth of Independent States (former USSR) (CIS)
Launch site: PLESETSK MISSILE AND SPACE COMPLEX (PKMTR)

Note: This is a ROCKET BODY
aabbcc
Your satellite tracking list
Your tracking list is empty




NASA's NSSDC Master Catalog

Two Line Element Set (TLE):
1 13917U 83021B   18169.56750417 +.00000083 +00000-0 +68788-4 0  9997
2 13917 082.9426 334.5913 0027305 306.7561 117.8566 13.76833201769748
Source of the keplerian elements: AFSPC